USA 164 (MILSTAR-2 3)

Last updated on Thu Nov 06 2025 00:02:45 GMT+0000 (Coordinated Universal Time)

1 27168U 02001A 25308.92475409 .00000108 00000+0 00000+0 0 9992 2 27168 10.9108 23.2105 0096098 2.1936 11.1124 1.00278178 30716
UTC large
Height (km)
Speed (km/s)
/
Latitude / Longitude
Inclination (degrees)
Orbital Period (minutes)
Azimuth
Elevation
Range (km)
Doppler Factor

Next 0 passes for location: London (51.5072 / 0.1276)

Sorry there are no passes over London.